ASTROCAST-0104 (47519 NORAD) Tracking and Keplerian Element Data

This shows tracking and keplerian element data for the satellite.

Feedback or suggestion? Click here.




ElementValue
Catalog47519
NameASTROCAST-0104
Epoch Orbit1168
Epoch Day99.92486271
Epoch Year2021
RAAN162.2518
Inclination97.4975
Eccentricity0.0009048
Argument of Perigee338.5199
Mean Anonmoly21.5651
Mean Motion15.11815443
Decay Rate8.63E-06
L11 47519U 21006DK 21099.92486271 .00000863 00000-0 54232-4 0 9992
L22 47519 97.4975 162.2518 0009048 338.5199 21.5651 15.11815443 11682

Live tracking and technical data element details for ASTROCAST-0104 (NORAD 47519). ASTROCAST-0104 can be tracked NOW for your location showing map with azimuth and elevation plus other details from your city location.

Track the satellite on the map from your city or location and see movement details for azimuth, elevation, latitude, longitude, range, height, and movement on the map or in text.







IsCatalogInMostPopularTable: catalog: 47519, numindb: 12
Update: records affected: 1



GetName: 47519 ASTROCAST-0104

Hit Count: updated at: Sat, 10 Apr 2021 19:00:19 GMT